Weather History for Nome, AK

Change the Weather History Date:

Tuesday, March 18, 2014

  Actual Average Record
Temperature  
Mean Temperature 9 °F 10 °F  
Max Temperature 15 °F 18 °F 36 °F (1998)
Min Temperature 2 °F - -37 °F (1975)
Degree Days  
Heating Degree Days 56 55  
Month to date heating degree days 1014 997  
Since 1 July heating degree days 9160 10279  
Cooling Degree Days 0    
Month to date cooling degree days 0  
Year to date cooling degree days 0  
Moisture  
Dew Point 6 °F    
Average Humidity 0    
Maximum Humidity 0    
Minimum Humidity 0    
Precipitation  
Precipitation 0.01 in 0.02 in 0.41 in (1993)
Month to date precipitation 0.53 0.40  
Year to date precipitation 2.70 2.27  
Snow  
Snow 0.40 in 0.30 in 4.10 in (1993)
Month to date snowfall 12.3 5.6  
Since 1 July snowfall 66.6 62.3  
Snow Depth 18.00 in    
Sea Level Pressure  
Sea Level Pressure 29.90 in    
Wind  
Wind Speed 15 mph (WSW)    
Max Wind Speed 31 mph    
Max Gust Speed 34 mph    
Visibility 6 miles    
Events Snow    
T = Trace of Precipitation, MM = Missing Value Source: NWS Daily Summary

Daily Weather History Graph

Daily Weather History Graph

Search for Another Location

Airport:

Trip Planner

Search our weather history database for the weather conditions in past years. The results will help you decide how hot, cold, wet, or windy it might be!

Date:

Astronomy

Mar. 18, 2014 Rise Set
Actual Time 9:08 AM AKDT 9:12 PM AKDT
Civil Twilight 8:20 AM AKDT 10:00 PM AKDT
Nautical Twilight 7:21 AM AKDT 10:59 PM AKDT
Astronomical Twilight 6:16 AM AKDT 12:06 AM AKDT
Moon No Moon Rise 9:15 AM AKDT (3/18)
Length of Visible Light 13h 40m
Length of Day
12h 03m
Waning Gibbous, 95% of the Moon is Illuminated
Mar 18
Waning Gibbous
Mar 23
Last Quarter
Mar 30
New
Apr 7
First Quarter
Apr 14
Full

Hourly Weather History & Observations

Time (AKDT) Temp. Windchill Dew Point Humidity Pressure Visibility Wind Dir Wind Speed Gust Speed Precip Events Conditions
12:24 AM 16.0 °F 3.6 °F 12.9 °F 88% 29.54 in 9.0 mi SE 10.4 mph - 0.00 in Snow Light Snow
12:53 AM 16.0 °F 3.6 °F 12.9 °F 88% 29.53 in 9.0 mi SSE 10.4 mph - 0.00 in Snow Light Snow
1:38 AM 15.1 °F 3.3 °F 12.0 °F 88% 29.55 in 8.0 mi SSE 9.2 mph - 0.00 in Snow Light Snow
1:51 AM 15.8 °F 4.2 °F 12.2 °F 86% 29.56 in 4.0 mi SSE 9.2 mph - 0.00 in Snow Light Snow
1:53 AM 15.1 °F 2.5 °F 12.0 °F 88% 29.57 in 3.0 mi SSE 10.4 mph - 0.00 in Snow Light Snow
2:12 AM 14.0 °F 1.2 °F 12.0 °F 92% 29.58 in 1.2 mi SSW 10.4 mph - 0.00 in Snow Light Snow
2:33 AM 12.9 °F 1.6 °F 10.9 °F 92% 29.60 in 2.0 mi South 8.1 mph - 0.01 in Snow Light Snow
2:51 AM 12.2 °F -0.2 °F 10.4 °F 92% 29.61 in 1.8 mi SSW 9.2 mph - 0.01 in Snow Light Snow
2:53 AM 12.9 °F 1.6 °F 10.9 °F 92% 29.62 in 1.5 mi SSW 8.1 mph - 0.01 in Snow Light Snow
3:27 AM 12.9 °F 1.6 °F 10.0 °F 88% 29.63 in 6.0 mi SSW 8.1 mph - 0.00 in   Overcast
3:53 AM 12.0 °F 0.5 °F 10.0 °F 92% 29.66 in 4.0 mi SW 8.1 mph - 0.00 in Snow Light Snow
4:29 AM 12.9 °F 1.6 °F 10.9 °F 92% 29.68 in 2.5 mi WSW 8.1 mph - 0.00 in Snow Light Snow
4:50 AM 12.2 °F -3.7 °F 10.4 °F 92% 29.69 in 1.5 mi WSW 15.0 mph - 0.00 in Snow Light Snow
4:53 AM 12.9 °F -1.6 °F 10.9 °F 92% 29.69 in 1.5 mi West 12.7 mph - 0.00 in Snow Light Snow
5:26 AM 12.9 °F -4.4 °F 10.0 °F 88% 29.71 in 3.0 mi West 18.4 mph - 0.00 in Snow Light Snow
5:51 AM 12.2 °F -6.7 °F 10.4 °F 92% 29.71 in 4.0 mi WSW 21.9 mph - 0.00 in Snow Light Snow
5:53 AM 12.9 °F -5.3 °F 10.0 °F 88% 29.73 in 4.0 mi WSW 20.7 mph - 0.00 in Snow Light Snow
6:53 AM 12.0 °F -6.0 °F 9.0 °F 88% 29.78 in 5.0 mi West 19.6 mph - 0.00 in Snow Light Snow
7:13 AM 10.9 °F -8.8 °F 9.0 °F 92% 29.79 in 2.5 mi West 23.0 mph - 0.00 in Snow Light Snow
7:33 AM 10.9 °F -8.8 °F 8.1 °F 88% 29.82 in 3.0 mi West 23.0 mph - 0.00 in Snow Light Snow
7:51 AM 10.4 °F -10.3 °F 8.6 °F 92% 29.83 in 3.0 mi West 25.3 mph - 0.00 in Snow Light Snow
7:53 AM 10.0 °F -10.4 °F 8.1 °F 92% 29.83 in 3.0 mi West 24.2 mph - 0.00 in Snow Light Snow
8:26 AM 9.0 °F -10.5 °F 5.0 °F 84% 29.85 in 4.0 mi West 20.7 mph - 0.00 in Snow Light Snow
8:53 AM 8.1 °F -13.0 °F 3.9 °F 83% 29.88 in 7.0 mi West 24.2 mph - 0.00 in   Overcast
9:53 AM 6.1 °F -12.2 °F 1.9 °F 83% 29.94 in 9.0 mi West 16.1 mph - 0.00 in   Overcast
10:53 AM 3.9 °F -18.1 °F -0.0 °F 84% 29.96 in 10.0 mi West 23.0 mph - N/A   Mostly Cloudy
11:53 AM 3.9 °F -13.7 °F -0.9 °F 80% 30.02 in 10.0 mi WNW 13.8 mph - N/A   Scattered Clouds
12:53 PM 3.9 °F -18.1 °F -0.9 °F 80% 30.05 in 10.0 mi West 23.0 mph - N/A   Partly Cloudy
1:53 PM 5.0 °F -17.5 °F -0.9 °F 76% 30.10 in 10.0 mi West 25.3 mph - N/A   Partly Cloudy
2:53 PM 6.1 °F -12.2 °F -0.0 °F 76% 30.17 in 10.0 mi WNW 16.1 mph - N/A   Partly Cloudy
3:53 PM 7.0 °F -10.4 °F -0.0 °F 73% 30.21 in 10.0 mi NW 15.0 mph - N/A   Partly Cloudy
4:53 PM 8.1 °F -7.0 °F 1.0 °F 73% 30.24 in 10.0 mi WNW 11.5 mph - N/A   Partly Cloudy
5:53 PM 9.0 °F -7.9 °F 1.0 °F 70% 30.28 in 10.0 mi WNW 15.0 mph - N/A   Partly Cloudy
6:53 PM 8.1 °F -6.2 °F 1.0 °F 73% 30.30 in 10.0 mi WNW 10.4 mph - N/A   Partly Cloudy
7:53 PM 7.0 °F -8.3 °F -0.0 °F 73% 30.32 in 10.0 mi NW 11.5 mph - N/A   Clear
8:53 PM 7.0 °F -13.1 °F -0.9 °F 70% 30.31 in 10.0 mi West 20.7 mph - N/A Snow Low Drifting Snow
9:53 PM 6.1 °F -12.2 °F -2.0 °F 69% 30.36 in 10.0 mi West 16.1 mph - N/A Snow Low Drifting Snow
10:53 PM 7.0 °F -1.7 °F -2.9 °F 64% 30.39 in 10.0 mi Variable 4.6 mph - N/A   Scattered Clouds
11:53 PM 7.0 °F -3.3 °F -4.0 °F 61% 30.43 in 10.0 mi West 5.8 mph - N/A   Partly Cloudy